TimeAKST,TemperatureF,Dew PointF,Humidity,Sea Level PressureIn,VisibilityMPH,Wind Direction,Wind SpeedMPH,Gust SpeedMPH,PrecipitationIn,Events,Conditions,WindDirDegrees,DateUTC
12:53 AM,39.9,37.0,89,29.93,10.0,South,8.1,-,0.01,Rain,Light Rain,170,2014-01-07 09:53:00
1:53 AM,41.0,36.0,82,29.91,10.0,South,4.6,-,0.00,,Overcast,170,2014-01-07 10:53:00
3:53 AM,39.9,36.0,86,29.89,10.0,SE,3.5,-,0.00,,Overcast,130,2014-01-07 12:53:00
4:53 AM,41.0,36.0,82,29.87,10.0,South,3.5,-,0.00,Rain,Light Rain,180,2014-01-07 13:53:00
5:44 AM,41.0,37.4,87,29.85,10.0,South,6.9,-,0.01,Rain,Light Rain,180,2014-01-07 14:44:00
5:53 AM,41.0,37.0,86,29.86,10.0,South,4.6,-,0.01,Rain,Light Rain,170,2014-01-07 14:53:00
6:53 AM,41.0,37.9,89,29.85,10.0,South,5.8,-,0.01,Rain,Light Rain,190,2014-01-07 15:53:00
7:53 AM,39.9,37.9,93,29.85,10.0,South,4.6,-,0.01,,Overcast,170,2014-01-07 16:53:00
8:53 AM,39.9,37.9,93,29.86,9.0,South,5.8,-,0.01,Rain,Light Rain,170,2014-01-07 17:53:00
9:53 AM,39.9,37.9,93,29.86,5.0,South,4.6,-,0.00,,Overcast,170,2014-01-07 18:53:00
10:53 AM,39.9,39.0,97,29.85,4.0,South,4.6,-,0.01,,Overcast,180,2014-01-07 19:53:00
11:53 AM,39.9,39.0,97,29.84,4.0,South,4.6,-,N/A,,Overcast,170,2014-01-07 20:53:00
12:53 PM,39.9,39.0,97,29.83,3.0,South,4.6,-,0.01,,Overcast,170,2014-01-07 21:53:00
1:53 PM,39.9,39.0,97,29.82,4.0,South,4.6,-,N/A,,Overcast,180,2014-01-07 22:53:00
2:53 PM,41.0,39.0,93,29.81,7.0,Calm,Calm,-,0.02,,Overcast,0,2014-01-07 23:53:00
3:53 PM,39.9,39.0,97,29.80,4.0,Calm,Calm,-,0.01,Rain,Light Rain,0,2014-01-08 00:53:00
4:53 PM,39.9,39.0,97,29.78,4.0,South,3.5,-,0.01,Rain,Light Rain,170,2014-01-08 01:53:00
5:53 PM,39.9,39.9,100,29.76,4.0,Calm,Calm,-,0.02,Rain,Light Rain,0,2014-01-08 02:53:00
6:53 PM,39.9,39.0,97,29.76,4.0,Calm,Calm,-,0.01,,Overcast,0,2014-01-08 03:53:00
7:53 PM,39.9,39.0,97,29.74,4.0,SE,3.5,-,0.02,,Overcast,140,2014-01-08 04:53:00
8:53 PM,39.9,39.0,97,29.72,4.0,SSE,3.5,-,0.01,Rain,Light Rain,160,2014-01-08 05:53:00
9:39 PM,39.2,39.2,100,29.71,3.0,SSE,4.6,-,0.01,Rain,Light Rain,150,2014-01-08 06:39:00
9:48 PM,39.2,39.2,100,29.71,4.0,SSE,5.8,-,0.01,Rain,Light Rain,160,2014-01-08 06:48:00
9:53 PM,41.0,39.0,93,29.71,5.0,SSE,3.5,-,0.01,Rain,Light Rain,160,2014-01-08 06:53:00
10:00 PM,39.2,39.2,100,29.71,6.0,SSE,4.6,-,0.01,,Overcast,150,2014-01-08 07:00:00
10:35 PM,41.0,39.2,93,29.69,6.0,South,4.6,-,0.01,Rain,Light Rain,180,2014-01-08 07:35:00
10:53 PM,41.0,39.9,96,29.69,5.0,SSE,3.5,-,0.02,Rain,Light Rain,160,2014-01-08 07:53:00
11:31 PM,41.0,39.2,93,29.67,9.0,South,4.6,-,0.00,Rain,Light Rain,170,2014-01-08 08:31:00
11:53 PM,41.0,39.9,96,29.67,5.0,Calm,Calm,-,0.01,Rain,Light Rain,0,2014-01-08 08:53:00